User: anonymous   Login
Location: Unspecified
(0.0000°N, 0.0000°E)
Time: 07:07:32
(UTC+00:00)
Language:

DIAMOND RED - Orbit

View from above orbital plane
View from above orbital plane
View from above satellite
View from above satellite

Ground track
Ground track

The orbit data is extracted from the following two-line orbital elements,

1 42783U 17036U   17291.59778852 +.00001644 +00000-0 +77480-4 0  9997
2 42783 097.4366 349.9224 0012186 195.4333 164.6533 15.20869530017780
Epoch (UTC): 18 October 2017 14:20:48
Eccentricity: 0.0012186
inclination: 97.4366°
perigee height: 495 km
apogee height: 511 km
right ascension of ascending node: 349.9224°
argument of perigee: 195.4333°
revolutions per day: 15.20869530
mean anomaly at epoch: 164.6533°
orbit number at epoch: 1778

The dashed part of the orbit path shows where the satellite is in the earth's shadow,  

DLR